sat.trackr.live / text

‹ back to catalog

STARLINK-5781

NORAD 56030 · 2023-042AW

PAYLOAD ACTIVE UNKNOWN

§ Identity

Operator
Country
US
Launch date
2023-03-24
Launch site
AFETR
Launch vehicle
Mass (kg)
RCS (m²)

Purposes: comms

External: N2YO · Heavens-Above · Gunter

§ Orbital elements

Epoch: 2026-09-20T09:29:11.467104Z

Period
94.27 min
Inclination
43.0055°
Eccentricity
0.0001674
Mean motion
15.27575510 rev/d
Perigee alt
481.9 km
Apogee alt
484.2 km
Semi-major
6,861.2 km
B*
1.3016e-5
RAAN
25.5848°
Arg perigee
270.0481°
Mean anomaly
90.0179°
Rev number
19,281

§ Raw data

STARLINK-57811 56030U 23042AW  26263.39527161  .00000096  00000+0  13016-4 0  99972 56030  43.0055  25.5848 0001674 270.0481  90.0179 15.27575510192810

JSON: /api/v1/satellites/56030 · /tle

For live sub-satellite position, see the globe view (requires WebGL).

§ Visibility from observer

Set your observer location to see the next 7 days of passes ≥ 10°. The values pass through the URL so the page stays shareable.

No JS? Fill the form by hand. The geolocation button needs JavaScript.